Grand Canyon, AZ

7:57 PM MST on August 22, 2017 (GMT -0700)
Grand Canyon National Park

Weather History for KGCN - May, 2013

Change the Weather History Date:

Friday, May 3, 2013

  Actual Average Record
Temperature  
Mean Temperature 46 °F -  
Max Temperature 70 °F 63 °F 78 °F (1986)
Min Temperature 21 °F 26 °F 18 °F (2001)
Degree Days  
Heating Degree Days 20    
Moisture  
Dew Point -2 °F    
Average Humidity 16    
Maximum Humidity 35    
Minimum Humidity 5    
Precipitation  
Precipitation 0.00 in - - ()
Sea Level Pressure  
Sea Level Pressure 30.06 in    
Wind  
Wind Speed 5 mph (ENE)    
Max Wind Speed 15 mph    
Max Gust Speed 26 mph    
Visibility 10 miles    
Events      
Averages and records for this station are not official NWS values.
T = Trace of Precipitation, MM = Missing Value Source: NWS Daily Summary

Daily Weather History Graph

Daily Weather History Graph

Search for Another Location

Airport or City:

Trip Planner

Search our weather history database for the weather conditions in past years. The results will help you decide how hot, cold, wet, or windy it might be!

Date:

Astronomy

May. 03, 2013 Rise Set
Actual Time 5:33 AM MST 7:17 PM MST
Civil Twilight 5:06 AM MST 7:45 PM MST
Nautical Twilight 4:32 AM MST 8:18 PM MST
Astronomical Twilight 3:57 AM MST 8:54 PM MST
Moon 1:48 AM MST (5/3) 1:27 PM MST (5/3)
Length of Visible Light 14h 39m
Length of Day
13h 44m
Waning Crescent, 36% of the Moon is Illuminated
May 3
Waning Crescent
May 9
New
May 17
First Quarter
May 24
Full
May 31
Last Quarter

Hourly Weather History & Observations

Time (MST) Temp. Windchill Dew Point Humidity Pressure Visibility Wind Dir Wind Speed Gust Speed Precip Events Conditions
12:54 AM 42.1 °F 39.2 °F -4.0 °F 14% 30.23 in 10.0 mi Variable 4.6 mph - N/A   Clear
1:54 AM 39.0 °F 34.0 °F -2.9 °F 17% 30.21 in 10.0 mi ENE 6.9 mph - N/A   Clear
2:54 AM 33.1 °F 30.0 °F -2.0 °F 22% 30.22 in 10.0 mi ESE 3.5 mph - N/A   Clear
3:54 AM 24.1 °F - -2.9 °F 31% 30.25 in 10.0 mi Calm Calm - N/A   Clear
4:54 AM 21.0 °F - -2.9 °F 35% 30.26 in 10.0 mi Calm Calm - N/A   Clear
5:54 AM 21.9 °F - -2.0 °F 35% 30.26 in 10.0 mi Calm Calm - N/A   Clear
6:54 AM 37.0 °F - 1.9 °F 23% 30.20 in 10.0 mi Calm Calm - N/A   Clear
7:54 AM 50.0 °F - -0.0 °F 13% 30.14 in 10.0 mi East 15.0 mph 21.9 mph N/A   Clear
8:54 AM 55.0 °F - -0.9 °F 10% 30.10 in 10.0 mi ENE 10.4 mph - N/A   Clear
9:54 AM 59.0 °F - -2.0 °F 8% 30.09 in 10.0 mi SE 8.1 mph - N/A   Clear
10:54 AM 62.1 °F - -0.0 °F 8% 30.08 in 10.0 mi Variable 6.9 mph 18.4 mph N/A   Clear
11:54 AM 64.9 °F - 1.0 °F 8% 30.03 in 10.0 mi ENE 13.8 mph 19.6 mph N/A   Clear
12:54 PM 64.9 °F - -5.1 °F 6% 29.99 in 10.0 mi Variable 4.6 mph - N/A   Clear
1:54 PM 66.9 °F - -4.0 °F 6% 29.97 in 10.0 mi Variable 3.5 mph - N/A   Clear
2:54 PM 68.0 °F - -2.9 °F 6% 29.95 in 10.0 mi NW 6.9 mph - N/A   Clear
3:54 PM 70.0 °F - -6.0 °F 5% 29.96 in 10.0 mi WSW 6.9 mph 26.5 mph N/A   Clear
4:54 PM 68.0 °F - -6.0 °F 5% 29.96 in 10.0 mi Variable 4.6 mph - N/A   Clear
5:54 PM 66.9 °F - -7.1 °F 5% 29.95 in 10.0 mi Variable 5.8 mph - N/A   Clear
6:54 PM 62.1 °F - -5.1 °F 7% 29.90 in 10.0 mi NNW 3.5 mph - N/A   Clear
7:54 PM 41.0 °F - 1.0 °F 19% 29.95 in 10.0 mi Calm Calm - N/A   Clear
8:54 PM 36.0 °F - -0.9 °F 21% 29.95 in 10.0 mi Calm Calm - N/A   Clear
9:54 PM 35.1 °F - 1.0 °F 24% 29.94 in 10.0 mi Calm Calm - N/A   Clear
10:54 PM 33.1 °F 26.9 °F 1.0 °F 26% 29.92 in 10.0 mi ENE 6.9 mph - N/A   Clear
11:54 PM 28.9 °F - -0.0 °F 29% 29.92 in 10.0 mi Calm Calm - N/A   Clear